[[{"header":{"parameterUnit":"m.s-1","parameterCategory":1,"la1":30.2992,"la2":30.254,"lo1":-89.0895,"lo2":-89.0443,"dy":0.0025,"dx":0.0025,"nx":19,"ny":19,"refTime":"2026-05-21T09:00:00:Z","depth":0,"parameterNumber":2,"parameterNumberName":"U-component_of_WINDS"},"data":[0,0,0,-3.8396,-3.8398,-3.8476,-3.8476,-3.8586,-3.8587,0,0,0,0,0,0,0,0,0,0,0,-3.8379,-3.838,-3.8396,-3.8398,-3.8476,-3.8476,-3.8586,-3.8587,0,0,0,0,0,0,0,0,0,0,0,-3.8378,-3.838,-3.8381,-3.8398,-3.8476,-3.8476,-3.8586,-3.8523,0,0,0,0,0,0,0,0,0,0,-3.8445,-3.8436,-3.8379,-3.8381,-3.8399,-3.8476,-3.8477,-3.852,-3.8527,-3.8555,0,-3.8582,0,-3.8587,-3.8595,-3.8596,0,0,0,-3.8392,-3.843,-3.8446,-3.8381,-3.8399,-3.8476,-3.8439,-3.8523,-3.8531,-3.8564,-3.8584,-3.8588,-3.8589,-3.8596,-3.8597,-3.8779,-3.878,0,0,-3.8388,-3.8396,-3.844,-3.8451,-3.8441,-3.8437,-3.8442,-3.8528,-3.855,-3.8584,-3.859,-3.859,-3.8597,-3.8598,-3.8778,-3.8779,0,0,0,-3.8379,-3.8393,-3.8407,-3.8447,-3.8461,-3.8439,-3.8445,-3.8546,-3.8549,-3.8591,-3.8592,-3.8597,-3.8599,-3.8777,-3.8778,-3.884,0,0,0,-3.8376,-3.8388,-3.8405,-3.8411,-3.8459,-3.8504,-3.8461,-3.8543,-3.8553,-3.8591,-3.8597,-3.86,-3.8775,-3.8778,-3.8836,-3.8867,0,0,0,-3.8371,-3.8387,-3.8401,-3.8411,-3.8445,-3.8503,-3.8511,-3.8545,-3.8554,-3.8596,-3.86,-3.8775,-3.8777,-3.8832,-3.8861,-3.8916,0,0,0,-3.8368,-3.8455,-3.8403,-3.8499,-3.8445,-3.8542,-3.8511,-3.8582,-3.8626,-3.8598,-3.8776,-3.8778,-3.8831,-3.8857,-3.8912,-3.8963,-3.8986,0,0,-3.8482,-3.8469,-3.8525,-3.8481,-3.8589,-3.8529,-3.8646,-3.8677,-3.8673,-3.8744,-3.8748,-3.8837,-3.886,-3.8916,-3.9114,-3.9132,0,0,0,-3.8564,-3.8604,-3.8631,-3.8674,-3.8702,-3.8727,-3.874,-3.8752,-3.8812,-3.8712,-3.8873,-3.8887,-3.8919,-3.8943,-3.8958,-3.8984,-3.879,-3.879,-3.879,-3.8733,-3.8726,-3.8818,-3.882,-3.8862,-3.8876,-3.8909,-3.8927,-3.8905,-3.8944,-3.8964,-3.9085,-3.9114,-3.9125,-3.9153,-3.8992,-3.8992,-3.8993,-3.8993,-3.8897,-3.8952,-3.8924,-3.9003,-3.8994,-3.9061,-3.9078,-3.9061,-3.912,-3.9069,-3.9097,-3.904,-3.9145,-3.9169,-3.8997,-3.8996,-3.8996,-3.8995,-3.8995,-3.9005,-3.903,-3.9045,-3.9107,-3.9155,-3.9154,-3.9213,-3.9203,-3.9194,-3.9222,-3.924,-3.9239,-3.9235,-3.9232,-3.9233,-3.9233,-3.9233,-3.9234,-3.9234,-3.911,-3.9125,-3.9177,-3.9215,-3.9241,-3.9275,-3.9292,-3.9317,-3.9342,-3.933,-3.933,-3.9304,-3.9158,-3.912,-3.924,-3.9239,-3.9238,-3.9238,-3.9237,-3.9275,-3.9237,-3.9316,-3.9343,-3.9387,-3.9435,-3.9423,-3.9476,-3.9496,-3.9525,-3.9495,-3.9389,-3.9374,-3.9362,-3.933,-3.9497,-3.9497,-3.9497,-3.9497,-3.9364,-3.9357,-3.9436,-3.948,-3.9521,-3.9519,-3.9608,-3.9622,-3.963,-3.9642,-3.9617,-3.9575,-3.9563,-3.9555,-3.9539,-3.9509,-3.9718,-3.9718,-3.9718,-3.9464,-3.9461,-3.9538,-3.9548,-3.9582,-3.9611,-3.9694,-3.9744,-3.9746,-3.9727,-3.965,-3.9641,-3.9573,-3.9552,-3.9528,-3.9502,-3.9447,0,0]},{"header":{"parameterUnit":"m.s-1","parameterCategory":1,"la1":30.2992,"la2":30.254,"lo1":-89.0895,"lo2":-89.0443,"dy":0.0025,"dx":0.0025,"nx":19,"ny":19,"refTime":"2026-05-21T09:00:00:Z","depth":0,"parameterNumber":3,"parameterNumberName":"V-component_of_WINDS"},"data":[0,0,0,4.044,4.0441,4.0511,4.0511,4.0589,4.0589,0,0,0,0,0,0,0,0,0,0,0,4.0415,4.0415,4.044,4.0441,4.0511,4.0511,4.0589,4.0589,0,0,0,0,0,0,0,0,0,0,0,4.0415,4.0415,4.0416,4.0442,4.0511,4.0511,4.0589,4.0539,0,0,0,0,0,0,0,0,0,0,4.0473,4.0447,4.0415,4.0416,4.0442,4.0511,4.0512,4.0537,4.0542,4.0553,0,4.0564,0,4.0578,4.0594,4.0594,0,0,0,4.0444,4.0442,4.0465,4.0416,4.0443,4.0511,4.048,4.054,4.0546,4.056,4.0565,4.0568,4.0579,4.0595,4.0595,4.0653,4.0653,0,0,4.044,4.0424,4.0461,4.0469,4.0461,4.0478,4.0482,4.0544,4.0547,4.0565,4.057,4.058,4.0595,4.0596,4.0653,4.0653,0,0,0,4.0427,4.0421,4.0443,4.0466,4.0479,4.048,4.0485,4.0545,4.0553,4.0571,4.0581,4.0595,4.0596,4.0653,4.0653,4.0648,0,0,0,4.0425,4.0414,4.0441,4.0432,4.0478,4.0513,4.0484,4.0549,4.0556,4.0581,4.0595,4.0597,4.0653,4.0653,4.0648,4.0648,0,0,0,4.0411,4.0413,4.0422,4.0431,4.0461,4.0513,4.0525,4.0551,4.0563,4.0594,4.0597,4.0653,4.0653,4.0647,4.0647,4.0659,0,0,0,4.0392,4.0414,4.0421,4.0449,4.0461,4.0509,4.0525,4.0561,4.0588,4.0596,4.0653,4.0653,4.0647,4.0647,4.0659,4.0668,4.067,0,0,4.0411,4.0416,4.0433,4.0442,4.0486,4.05,4.0542,4.0579,4.0595,4.0632,4.0634,4.0648,4.0647,4.0659,4.0684,4.0685,0,0,0,4.0434,4.0447,4.0461,4.0488,4.0518,4.0544,4.0577,4.0591,4.0624,4.0612,4.0655,4.0655,4.0663,4.0668,4.0669,4.0677,4.0655,4.0655,4.0655,4.0438,4.0459,4.049,4.0519,4.0543,4.0577,4.0598,4.0622,4.0634,4.0644,4.0656,4.0668,4.0673,4.0675,4.0682,4.0661,4.0661,4.0661,4.0661,4.0469,4.049,4.0507,4.0543,4.0563,4.0593,4.0625,4.0633,4.0662,4.0661,4.0669,4.0668,4.0676,4.0683,4.066,4.066,4.0661,4.0661,4.0661,4.0475,4.0489,4.0507,4.0546,4.0573,4.06,4.0628,4.0645,4.066,4.0668,4.0682,4.0682,4.0685,4.0673,4.0673,4.0673,4.0673,4.0673,4.0673,4.0476,4.0496,4.0519,4.0553,4.0571,4.0598,4.0631,4.0649,4.0672,4.0682,4.0683,4.0694,4.0673,4.0668,4.0674,4.0674,4.0674,4.0674,4.0674,4.0501,4.0498,4.0534,4.0553,4.0593,4.0619,4.064,4.0674,4.0691,4.0704,4.0713,4.0694,4.07,4.0699,4.0695,4.0708,4.0708,4.0708,4.0708,4.0508,4.0513,4.0553,4.0582,4.0611,4.0634,4.067,4.0695,4.072,4.0731,4.0731,4.0727,4.0725,4.0732,4.073,4.0727,4.0748,4.0748,4.0748,4.0525,4.0533,4.0564,4.059,4.0623,4.065,4.0685,4.0715,4.0742,4.075,4.074,4.0739,4.0732,4.0729,4.0738,4.0735,4.0729,0,0]}]]